Location: Milton Keynes
(52.0316°N, 0.7531°W)
Time: 20:46:25
(UTC+00:00)

BlueWalker 3 - Visible Passes

Search period start: 30 November 2023 00:00
Search period end: 10 December 2023 00:00
Orbit: 489 x 504 km, 53.2° (Epoch: 29 November)

Date Brightness Start Highest point End Pass type
(mag) Time Alt. Az. Time Alt. Az. Time Alt. Az.
30 Nov 3.3 04:45:43 37° ESE 04:45:43 37° ESE 04:48:09 10° ESE visible
30 Nov 2.9 06:20:16 19° W 06:22:28 35° SSW 06:25:58 10° SSE visible
01 Dec 4.3 04:24:08 22° ESE 04:24:08 22° ESE 04:25:33 10° ESE visible
01 Dec 2.8 05:58:41 28° WSW 05:59:52 35° SSW 06:03:23 10° SSE visible
02 Dec 5.1 04:02:34 12° ESE 04:02:34 12° ESE 04:02:56 10° ESE visible
02 Dec 2.7 05:37:08 35° SW 05:37:16 35° SSW 05:40:46 10° SSE visible
03 Dec 3.2 05:15:37 30° S 05:15:37 30° S 05:18:09 10° SE visible
04 Dec 4.1 04:54:09 19° SSE 04:54:09 19° SSE 04:55:31 10° SE visible
05 Dec 4.9 04:32:44 11° SE 04:32:44 11° SE 04:32:51 10° SE visible
